Terug naar catalogus

STARLINK-3565

ActiefCommunicatieVLEO
NORAD 51886·PAYLOAD·🇺🇸 United States

Gelanceerd Mar 3, 2022 vanaf Cape Canaveral Space Force Station

Loading…

Volgende Passages (komende 24 uur)

TLE

VersSource: CelesTrak SupGP

Epoch: Sep 14, 2026, 20:51 UTC

1 51886C 22022AL  26257.86923611  .00047069  00000+0  27510-2 0  2573
2 51886  53.1758 228.4948 0001834  63.7518 324.1452 15.11367124    15

Volg STARLINK-3565 in realtime met AllMySat

Download on the App Store